Weather History for Sault Ste Marie, MI

Change the Weather History Date:

Wednesday, June 6, 2012

  Actual Average Record
Temperature  
Mean Temperature 63 °F 58 °F  
Max Temperature 74 °F 69 °F 89 °F (1925)
Min Temperature 51 °F 46 °F 32 °F (1983)
Degree Days  
Heating Degree Days 2 8  
Month to date heating degree days 53 51  
Since 1 June heating degree days 53 51  
Since 1 July heating degree days 7065 8534  
Cooling Degree Days 0 0  
Month to date cooling degree days 0 0  
Year to date cooling degree days 17 5  
Since 1 June cooling degree days 0 0  
Growing Degree Days 12 (Base 50)    
Moisture  
Dew Point 48 °F    
Average Humidity 62    
Maximum Humidity 83    
Minimum Humidity 41    
Precipitation  
Precipitation 0.00 in 0.09 in 1.93 in (1942)
Month to date precipitation 1.07 0.54  
Year to date precipitation 9.67 10.98  
Sea Level Pressure  
Sea Level Pressure 30.04 in    
Wind  
Wind Speed 7 mph (WNW)    
Max Wind Speed 17 mph    
Max Gust Speed 24 mph    
Visibility 10 miles    
Events Thunderstorm    
T = Trace of Precipitation, MM = Missing Value Source: NWS Daily Summary

Daily Weather History Graph

Daily Weather History Graph

Search for Another Location

Airport:

Trip Planner

Search our weather history database for the weather conditions in past years. The results will help you decide how hot, cold, wet, or windy it might be!

Date:

Astronomy

Jun. 06, 2012 Rise Set
Actual Time 5:45 AM EDT 9:27 PM EDT
Civil Twilight 5:07 AM EDT 10:05 PM EDT
Nautical Twilight 4:15 AM EDT 10:57 PM EDT
Astronomical Twilight 3:04 AM EDT 12:09 AM EDT
Moon 11:31 PM EDT (6/6) 8:09 AM EDT (6/6)
Length of Visible Light 16h 58m
Length of Day
15h 41m
Waning Gibbous, 93% of the Moon is Illuminated
Jun 6
Waning Gibbous
Jun 11
Last Quarter
Jun 19
New
Jun 26
First Quarter
Jul 3
Full

Hourly Weather History & Observations

Time (EDT) Temp. Dew Point Humidity Pressure Visibility Wind Dir Wind Speed Gust Speed Precip Events Conditions
12:55 AM 54.0 °F 46.0 °F 75% 30.05 in 10.0 mi WNW 3.5 mph - N/A   Mostly Cloudy
1:55 AM 55.0 °F 46.9 °F 74% 30.05 in 10.0 mi WNW 3.5 mph - N/A   Overcast
2:55 AM 55.9 °F 46.0 °F 69% 30.04 in 10.0 mi WNW 6.9 mph - N/A   Scattered Clouds
3:55 AM 53.1 °F 46.0 °F 77% 30.03 in 10.0 mi West 3.5 mph - N/A   Clear
4:55 AM 53.1 °F 46.9 °F 80% 30.04 in 10.0 mi WNW 4.6 mph - N/A   Scattered Clouds
5:55 AM 51.1 °F 46.0 °F 83% 30.05 in 10.0 mi WSW 3.5 mph - N/A   Mostly Cloudy
6:55 AM 53.1 °F 46.9 °F 80% 30.05 in 10.0 mi West 4.6 mph - N/A   Scattered Clouds
7:55 AM 57.0 °F 50.0 °F 77% 30.06 in 10.0 mi West 3.5 mph - N/A   Scattered Clouds
8:55 AM 66.0 °F 51.1 °F 59% 30.06 in 10.0 mi West 5.8 mph - N/A   Clear
9:55 AM 64.9 °F 50.0 °F 58% 30.06 in 10.0 mi WNW 4.6 mph - N/A   Partly Cloudy
10:55 AM 71.1 °F 51.1 °F 49% 30.06 in 10.0 mi WNW 10.4 mph - N/A   Clear
11:00 AM - - N/A% - - North - - N/A   Unknown
11:55 AM 72.0 °F 51.1 °F 48% 30.06 in 10.0 mi WNW 8.1 mph - N/A   Clear
12:55 PM 72.0 °F 50.0 °F 46% 30.04 in 10.0 mi WNW 10.4 mph - N/A   Clear
1:06 PM 70.0 °F 48.9 °F 47% 30.04 in 10.0 mi West 11.5 mph - N/A Thunderstorm Thunderstorm
1:55 PM 73.9 °F 50.0 °F 43% 30.05 in 10.0 mi NW 15.0 mph 21.9 mph N/A Thunderstorm Thunderstorm
2:33 PM 66.9 °F 48.0 °F 51% 30.06 in 10.0 mi WNW 5.8 mph - N/A   Mostly Cloudy
2:42 PM 69.1 °F 50.0 °F 51% 30.05 in 10.0 mi SW 6.9 mph - N/A Thunderstorm Thunderstorm
2:55 PM 70.0 °F 50.0 °F 49% 30.04 in 10.0 mi West 10.4 mph - N/A   Scattered Clouds
3:55 PM 72.0 °F 48.0 °F 43% 30.04 in 10.0 mi Variable 5.8 mph - N/A   Mostly Cloudy
4:55 PM 71.1 °F 46.9 °F 42% 30.03 in 10.0 mi WNW 11.5 mph - N/A   Partly Cloudy
5:29 PM 72.0 °F 48.9 °F 44% 30.01 in 10.0 mi WNW 8.1 mph - N/A Thunderstorm Thunderstorm
5:44 PM 72.0 °F 48.0 °F 43% 30.02 in 10.0 mi WNW 6.9 mph - N/A   Clear
6:55 PM 66.9 °F 46.0 °F 47% 30.03 in 10.0 mi WNW 6.9 mph - N/A   Clear
7:55 PM 66.0 °F 46.9 °F 50% 30.04 in 10.0 mi WNW 8.1 mph - N/A   Mostly Cloudy
8:55 PM 62.1 °F 48.9 °F 62% 30.04 in 10.0 mi WNW 6.9 mph - N/A   Clear
9:55 PM 59.0 °F 48.0 °F 67% 30.04 in 10.0 mi WNW 5.8 mph - N/A   Clear
10:55 PM 57.9 °F 46.9 °F 67% 30.04 in 10.0 mi NW 6.9 mph - N/A   Clear
11:55 PM 57.0 °F 46.9 °F 69% 30.04 in 10.0 mi WNW 8.1 mph - N/A   Clear